Home   Weather   Cascais   Past weeks

Flag for Portugal Past Weather in Cascais, Portugal — Yesterday and Last 2 Weeks

Now
37 °F

Clear.


Feels Like: 31 °F
Forecast: 37 / 50 °F
Wind: 8 mph from North

Location: Lisbon Portela Airport

Current Time: Jan 19, 2017 at 12:42:32 am

Latest Report: Jan 19, 2017 at 12:00 am


Visibility: 10 mi

Pressure: 30.12 "Hg

Humidity: 48%

Dew Point: 19 °F

Location of CascaisLocation

Past Weather in Cascais — Graph

°F

Cascais Temperature Yesterday

Maximum temperature yesterday: 52 °F (at 12:00 am)
Minimum temperature yesterday: 37 °F (at 9:30 pm)
Average temperature yesterday: 43 °F

High & Low Weather Summary for the Past Weeks

 TemperatureHumidityPressure
High64 °F (Jan 11, 12:30 pm)100% (Jan 3, 11:00 pm)30.48 "Hg (Jan 3, 11:00 pm)
Low37 °F (Jan 9, 8:00 am)29% (Jan 18, 1:30 pm)30.09 "Hg (Jan 17, 4:00 pm)
Average51 °F78%30.30 "Hg
* Reported Jan 3 11:00 pm — Jan 18 11:30 pm, Cascais, Weather by CustomWeather, © 2017

Note: Actual official high and low records may vary slightly from our data, if they occured in-between our weather recording intervals... More about our weather records

Advertising

Cascais Weather History for the Previous 24 Hours

Scroll right to see more
 ConditionsComfort  
Time TempWeatherWind HumidityBarometerVisibility
11:30 pm
Wed, Jan 18
39 °FClear.6 mph42%30.12 "Hg10 mi
11:00 pm37 °FClear.7 mph45%30.12 "Hg10 mi
10:30 pm39 °FClear.7 mph45%30.12 "Hg10 mi
10:00 pm37 °FClear.7 mph48%30.12 "Hg10 mi
9:30 pm37 °FClear.7 mph48%30.12 "Hg10 mi
9:00 pm39 °FClear.7 mph45%30.12 "Hg10 mi
8:30 pm39 °FClear.7 mph45%30.12 "Hg10 mi
8:00 pm39 °FClear.7 mph45%30.09 "Hg10 mi
7:30 pm39 °FClear.7 mph45%30.09 "Hg10 mi
7:00 pm39 °FClear.7 mph45%30.09 "Hg10 mi
6:30 pm41 °FClear.7 mph42%30.09 "Hg10 mi
6:00 pm43 °FClear.9 mph36%30.09 "Hg10 mi
5:30 pm45 °FPassing clouds.12 mph34%30.09 "HgN/A
5:00 pm46 °FSunny.12 mph29%30.09 "Hg10 mi
4:30 pm46 °FSunny.12 mph29%30.09 "Hg10 mi
4:00 pm46 °FPassing clouds.13 mph32%30.09 "HgN/A
3:30 pm46 °FSunny.12 mph32%30.09 "Hg10 mi
3:00 pm46 °FSunny.13 mph32%30.09 "Hg10 mi
2:30 pm46 °FPassing clouds.14 mph29%30.09 "HgN/A
2:00 pm46 °FPassing clouds.14 mph32%30.09 "HgN/A
1:30 pm48 °FPassing clouds.15 mph29%30.09 "HgN/A
1:00 pm46 °FPassing clouds.17 mph32%30.09 "HgN/A
12:30 pm46 °FPassing clouds.14 mph32%30.12 "HgN/A
12:00 pm45 °FPassing clouds.15 mph37%30.12 "HgN/A
11:30 am45 °FPassing clouds.16 mph31%30.15 "HgN/A
11:00 am43 °FPassing clouds.18 mph34%30.15 "HgN/A
10:30 am43 °FSunny.15 mph36%30.15 "Hg10 mi
10:00 am41 °FSunny.14 mph45%30.18 "Hg10 mi
9:30 am41 °FSunny.16 mph42%30.15 "Hg10 mi
8:30 am39 °FSunny.15 mph42%30.15 "Hg10 mi
8:00 am39 °FSunny.16 mph42%30.12 "Hg10 mi
7:30 am39 °FClear.15 mph42%30.12 "Hg10 mi
7:00 am41 °FClear.17 mph39%30.12 "Hg10 mi
6:30 am41 °FClear.17 mph36%30.12 "Hg10 mi
6:00 am43 °FClear.16 mph34%30.09 "Hg10 mi
5:30 am43 °FClear.16 mph39%30.12 "Hg10 mi
5:00 am43 °FPassing clouds.14 mph49%30.09 "HgN/A
4:30 am45 °FClear.13 mph49%30.09 "Hg10 mi
4:00 am45 °FClear.13 mph61%30.09 "Hg10 mi
3:30 am46 °FClear.13 mph62%30.12 "Hg10 mi
3:00 am48 °FClear.13 mph62%30.12 "Hg10 mi
2:30 am48 °FClear.10 mph62%30.12 "Hg10 mi
2:00 am48 °FClear.10 mph71%30.09 "Hg10 mi
1:30 am50 °FClear.8 mph71%30.09 "Hg10 mi
1:00 am48 °FClear.7 mph76%30.09 "Hg10 mi
12:30 am46 °FClear.2 mph93%30.09 "Hg10 mi
12:00 am52 °FPassing clouds.6 mph72%30.09 "HgN/A
Weather by CustomWeather, © 2017

See weather overviewHow to use our weather pages